Total_Precipitation_Accumulation
0.00 0.00 0.00 0.00 0.00 0.00 0.00 0.00 0.00 0.00 0.00 0.01 0.00 0.00 0.00 0.00 0.00 0.00 0.00 0.00 0.00 0.01 0.01 0.02 0.04 0.03 0.01 0.01 0.01 0.03 0.11 0.22
0.00 0.00 0.00 0.00 0.00 0.00 0.00 0.00 0.00 0.00 0.00 0.01 0.01 0.00 0.00 0.00 0.00 0.00 0.00 0.00 0.00 0.01 0.02 0.02 0.01 0.01 0.01 0.01 0.03 0.11 0.23 0.28
0.00 0.00 0.00 0.00 0.00 0.00 0.00 0.00 0.00 0.00 0.00 0.01 0.05 0.03 0.03 0.06 0.04 0.00 0.00 0.00 0.00 0.01 0.02 0.00 0.00 0.00 0.01 0.02 0.07 0.20 0.34 0.42
0.00 0.00 0.00 0.00 0.00 0.00 0.00 0.00 0.00 0.00 0.00 0.06 0.09 0.10 0.14 0.14 0.04 0.00 0.00 0.00 0.00 0.01 0.02 0.00 0.00 0.00 0.00 0.01 0.03 0.19 0.33 0.50
0.00 0.00 0.00 0.00 0.00 0.00 0.00 0.00 0.00 0.01 0.03 0.01 0.02 0.01 0.00 0.00 0.00 0.00 0.00 0.00 0.00 0.01 0.02 0.00 0.00 0.00 0.00 0.00 0.01 0.07 0.27 0.41
0.00 0.00 0.00 0.00 0.00 0.00 0.00 0.03 0.12 0.12 0.10 0.07 0.06 0.08 0.06 0.02 0.00 0.00 0.00 0.01 0.00 0.01 0.01 0.00 0.00 0.00 0.00 0.00 0.00 0.04 0.16 0.27
0.00 0.00 0.00 0.00 0.00 0.00 0.00 0.00 0.04 0.16 0.16 0.18 0.18 0.15 0.11 0.10 0.04 0.03 0.02 0.04 0.02 0.01 0.01 0.01 0.00 0.00 0.00 0.00 0.00 0.01 0.04 0.14
0.00 0.00 0.00 0.00 0.00 0.00 0.00 0.00 0.00 0.03 0.04 0.06 0.04 0.05 0.06 0.04 0.06 0.06 0.05 0.04 0.01 0.01 0.02 0.01 0.00 0.00 0.00 0.01 0.02 0.01 0.01 0.03
0.00 0.00 0.00 0.00 0.00 0.00 0.00 0.00 0.00 0.00 0.01 0.01 0.00 0.02 0.05 0.03 0.01 0.02 0.01 0.01 0.02 0.00 0.02 0.02 0.01 0.00 0.00 0.01 0.01 0.03 0.03 0.03
0.00 0.00 0.00 0.00 0.00 0.00 0.00 0.00 0.00 0.00 0.00 0.00 0.01 0.04 0.06 0.04 0.03 0.02 0.02 0.02 0.02 0.01 0.01 0.02 0.03 0.01 0.00 0.00 0.01 0.02 0.03 0.06
0.00 0.00 0.00 0.00 0.00 0.00 0.00 0.00 0.00 0.00 0.00 0.00 0.04 0.05 0.03 0.08 0.06 0.01 0.01 0.04 0.05 0.02 0.01 0.01 0.03 0.01 0.00 0.00 0.01 0.01 0.04 0.08
0.00 0.00 0.00 0.00 0.00 0.01 0.02 0.02 0.02 0.02 0.03 0.08 0.10 0.07 0.10 0.15 0.10 0.06 0.06 0.09 0.10 0.08 0.02 0.01 0.02 0.01 0.00 0.01 0.01 0.01 0.02 0.02
0.00 0.00 0.00 0.00 0.00 0.04 0.07 0.05 0.07 0.09 0.11 0.18 0.18 0.22 0.30 0.26 0.18 0.10 0.09 0.12 0.15 0.09 0.06 0.03 0.01 0.02 0.01 0.01 0.01 0.01 0.01 0.01
0.00 0.00 0.00 0.00 0.01 0.03 0.04 0.06 0.06 0.03 0.06 0.17 0.23 0.27 0.38 0.39 0.34 0.19 0.19 0.23 0.22 0.15 0.10 0.07 0.04 0.02 0.02 0.02 0.02 0.02 0.01 0.01
0.00 0.00 0.00 0.01 0.02 0.03 0.08 0.08 0.07 0.05 0.03 0.04 0.12 0.21 0.35 0.42 0.43 0.29 0.31 0.30 0.24 0.17 0.13 0.10 0.11 0.04 0.03 0.03 0.05 0.04 0.02 0.01
0.00 0.00 0.00 0.03 0.04 0.07 0.09 0.10 0.12 0.10 0.11 0.11 0.08 0.12 0.26 0.38 0.38 0.32 0.27 0.27 0.24 0.18 0.12 0.07 0.04 0.03 0.04 0.05 0.04 0.03 0.03 0.03
0.01 0.00 0.01 0.09 0.09 0.11 0.13 0.13 0.13 0.14 0.15 0.15 0.19 0.20 0.28 0.38 0.30 0.31 0.24 0.21 0.22 0.22 0.17 0.11 0.04 0.03 0.05 0.04 0.04 0.04 0.03 0.03
0.05 0.06 0.16 0.31 0.31 0.27 0.25 0.23 0.21 0.18 0.16 0.16 0.18 0.22 0.29 0.34 0.33 0.37 0.34 0.31 0.31 0.27 0.20 0.11 0.02 0.01 0.03 0.03 0.03 0.03 0.06 0.06
0.08 0.10 0.20 0.35 0.44 0.44 0.38 0.35 0.38 0.37 0.29 0.24 0.22 0.28 0.40 0.52 0.45 0.39 0.47 0.48 0.36 0.34 0.28 0.12 0.05 0.04 0.05 0.03 0.04 0.02 0.03 0.04